Location: Pf�ffikon
(47.2015°N, 8.7809°E)
Time: 18:46:06
(UTC+00:00)

STARLINK-44 - Pass Details

Date: 07 June 2020
Orbit: 434 x 435 km, 53.0° (Epoch: 10 July)

Event Time Altitude Azimuth Distance (km) Brightness Sun altitude
Exits shadow 00:51:24 - 127° (SE) 1,671 5.9 -17.3°
Enters shadow 01:49:32 -71° 239° (WSW) 12,511 10.4 -12.7°
Maximum altitude 02:28:07 53° 145° (SE) 563 3.6 -8.6°
